(196219) = 2003 BF46 = 2000 DU47

Discovered at Socorro on 2003-01-27 by LINEAR.

Orbit

Orbit type: Main Belt

Note: WebGL enabled browser required.

epoch2024-03-31.0
epoch JD2460400.5
perihelion date2021-08-25.40030
perihelion JD2459451.90030
argument of perihelion (°)240.85606
ascending node (°)133.07727
inclination (°)1.45549
eccentricity0.1755408
perihelion distance (AU)1.8048466
Tisserand w.r.t. Jupiter3.7
ΔV w.r.t. Earth (km/sec)8.3
semimajor axis (AU)2.1891278
mean anomaly (°)288.65571
mean daily motion (°/day)0.30429670
aphelion distance (AU)2.573
period (years)3.24
P-vector [x]0.97037072
P-vector [y]0.22957104
P-vector [z]0.07535124
Q-vector [x]-0.24090754
Q-vector [y]0.89530867
Q-vector [z]0.37468111
absolute magnitude17.31
phase slope0.15
uncertainty0
referenceMPEC 2024-C181
observations used569
oppositions16
arc length (days)9562
first opposition used1997
last opposition used2023
residual rms (arc-secs)0.69
perturbers coarse indicatorM-v
perturbers precise indicator003Ek
first observation date used1997-03-09.0
last observation date used2023-05-14.0
computer nameMPCLINUX
JD of orbit computation2456376.502152
perihelion JD uncertainty (days)4.7323E-05
argument of perihelion uncertainty (°)2.0206E-04
ascending node uncertainty (°)2.0130E-04
inclination uncertainty (°)5.5794E-06
eccentricity uncertainty 5.0489E-08
perihelion distance uncertainty (AU)1.1260E-07
Minimum Orbit Intersection Distances (in AU)
for orbit epoch: 2460400.5, reference: E2024-CI1
Mercury1.45363
Venus1.0798
Earth0.806
Mars0.38226
Jupiter2.87993
Saturn6.82909
Uranus15.9034
Neptune27.9455

Observations

620 total observations over interval: 1997 03 09.37927 – 2023 05 14.295635
These data are available for download (format description).

Date (UT) J2000 RA J2000 Dec Magn Location Ref
1997 03 09.37927 12 30 26.24 -01 25 37.6 21.1 V 691 – Steward Observatory, Kitt Peak-Spacewatch MPS 155278
1997 03 09.40022 12 30 25.13 -01 25 29.1 21.1 V 691 – Steward Observatory, Kitt Peak-Spacewatch MPS 155278
1997 03 09.42120 12 30 24.00 -01 25 21.2 20.6 V 691 – Steward Observatory, Kitt Peak-Spacewatch MPS 155278
1998 08 17.24540 21 13 36.70 -16 27 19.0 19.3   704 – Lincoln Laboratory ETS, New Mexico MPS 213089
1998 08 17.26629 21 13 35.44 -16 27 24.0 19.3   704 – Lincoln Laboratory ETS, New Mexico MPS 213089
1998 08 17.28732 21 13 34.18 -16 27 32.8 19.3   704 – Lincoln Laboratory ETS, New Mexico MPS 213089
1998 08 17.30826 21 13 32.98 -16 27 37.9 19.6   704 – Lincoln Laboratory ETS, New Mexico MPS 213089
1998 08 17.32924 21 13 31.35 -16 27 43.7 19.7   704 – Lincoln Laboratory ETS, New Mexico MPS 213089
1998 09 13.14539 20 55 49.48 -18 12 56.2 19.6 V 691 – Steward Observatory, Kitt Peak-Spacewatch MPS 155839
1998 09 13.16748 20 55 49.11 -18 12 58.6 19.9 V 691 – Steward Observatory, Kitt Peak-Spacewatch MPS 155839
1998 09 13.18921 20 55 48.73 -18 13 01.3 19.5 V 691 – Steward Observatory, Kitt Peak-Spacewatch MPS 155839
2000 02 29.24901 10 40 06.02 +09 33 11.6 19.7   704 – Lincoln Laboratory ETS, New Mexico MPS 11218
2000 02 29.27570 10 40 04.36 +09 33 23.0 20.1   704 – Lincoln Laboratory ETS, New Mexico MPS 11218
2000 02 29.30240 10 40 02.57 +09 33 34.8 19.9   704 – Lincoln Laboratory ETS, New Mexico MPS 11218
2000 03 03.27166 10 36 59.19 +09 53 16.2 18.9   704 – Lincoln Laboratory ETS, New Mexico MPS 11218
2000 03 03.28488 10 36 58.25 +09 53 21.3 18.8   704 – Lincoln Laboratory ETS, New Mexico MPS 11218
2000 03 03.29809 10 36 57.34 +09 53 25.9 19.4   704 – Lincoln Laboratory ETS, New Mexico MPS 11218
2000 03 03.31131 10 36 56.61 +09 53 31.2 18.9   704 – Lincoln Laboratory ETS, New Mexico MPS 11218
2003 01 27.32412 08 48 50.35 +17 35 39.0 20.0   704 – Lincoln Laboratory ETS, New Mexico MPS 71938
2003 01 27.33945 08 48 49.24 +17 35 43.3 20.2   704 – Lincoln Laboratory ETS, New Mexico MPS 71938
2003 01 27.35493 08 48 48.27 +17 35 50.1 20.3   704 – Lincoln Laboratory ETS, New Mexico MPS 71938
2003 01 27.37036 08 48 47.08 +17 35 53.7 20.1   704 – Lincoln Laboratory ETS, New Mexico MPS 71938
2003 01 30.23619 08 45 29.97 +17 50 57.5 19.2 R 699 – Lowell Observatory-LONEOS MPS 71938
2003 01 30.25399 08 45 28.79 +17 51 04.3   699 – Lowell Observatory-LONEOS MPS 71938
2003 01 30.27184 08 45 27.48 +17 51 08.3   699 – Lowell Observatory-LONEOS MPS 71938
2003 01 30.28992 08 45 26.15 +17 51 15.6   699 – Lowell Observatory-LONEOS MPS 71938
2003 01 31.34020 08 44 14.01 +17 56 43.1 20.2   704 – Lincoln Laboratory ETS, New Mexico MPS 71938
2003 01 31.35417 08 44 13.05 +17 56 47.5 19.8   704 – Lincoln Laboratory ETS, New Mexico MPS 71938
2003 01 31.38219 08 44 10.99 +17 56 55.3 20.0   704 – Lincoln Laboratory ETS, New Mexico MPS 71938
2004 05 20.92324 15 48 45.80 -17 34 00.5 19.6 R 599 – Campo Imperatore-CINEOS MPS 155839
2004 05 20.93400 15 48 45.02 -17 33 58.0 19.6 R 599 – Campo Imperatore-CINEOS MPS 155839
2004 05 20.94477 15 48 44.30 -17 33 56.3 19.1 R 599 – Campo Imperatore-CINEOS MPS 155839
2004 05 20.95556 15 48 43.53 -17 33 55.4 18.5 R 599 – Campo Imperatore-CINEOS MPS 155839
2005 12 04.32161 06 26 25.28 +21 14 51.9 19.5 V 691 – Steward Observatory, Kitt Peak-Spacewatch MPS 153648
2005 12 04.33914 06 26 24.35 +21 14 52.5 20.0 V 691 – Steward Observatory, Kitt Peak-Spacewatch MPS 153648
2005 12 04.35660 06 26 23.27 +21 14 53.5 19.9 V 691 – Steward Observatory, Kitt Peak-Spacewatch MPS 153648
2005 12 06.33532 06 24 25.70 +21 16 40.6   704 – Lincoln Laboratory ETS, New Mexico MPS 406896
2005 12 08.30484 06 22 22.64 +21 18 34.0 19.9 V 691 – Steward Observatory, Kitt Peak-Spacewatch MPS 153648
2005 12 08.33003 06 22 20.98 +21 18 35.8 19.7 V 691 – Steward Observatory, Kitt Peak-Spacewatch MPS 153648
2005 12 08.35525 06 22 19.28 +21 18 37.2 19.7 V 691 – Steward Observatory, Kitt Peak-Spacewatch MPS 153648
2008 08 04.39010 01 58 27.03 +10 35 27.1 19.7   704 – Lincoln Laboratory ETS, New Mexico MPS 253499
2008 08 04.41206 01 58 28.86 +10 35 36.0 19.7   704 – Lincoln Laboratory ETS, New Mexico MPS 253499
2008 08 04.42302 01 58 29.84 +10 35 40.2 20.3   704 – Lincoln Laboratory ETS, New Mexico MPS 253499
2008 09 06.44433 02 33 22.10 +12 45 29.1 19.7 V 703 – Catalina Sky Survey MPS 255800
2008 09 06.45084 02 33 22.32 +12 45 29.4 19.7 V 703 – Catalina Sky Survey MPS 255800
2008 09 06.45742 02 33 22.46 +12 45 29.8 19.8 V 703 – Catalina Sky Survey MPS 255800
2008 09 06.46396 02 33 22.78 +12 45 30.2 19.8 V 703 – Catalina Sky Survey MPS 255800
2008 09 28.28623 02 37 13.65 +12 28 39.7 19.5   704 – Lincoln Laboratory ETS, New Mexico MPS 264563
2008 09 28.29843 02 37 13.52 +12 28 35.0 19.8   704 – Lincoln Laboratory ETS, New Mexico MPS 264563
2008 09 28.31054 02 37 13.31 +12 28 33.9 20.0   704 – Lincoln Laboratory ETS, New Mexico MPS 264563
2008 09 28.32278 02 37 12.95 +12 28 35.2 20.5   704 – Lincoln Laboratory ETS, New Mexico MPS 264563
2008 09 28.33489 02 37 12.74 +12 28 31.7 19.8   704 – Lincoln Laboratory ETS, New Mexico MPS 264563
2008 10 01.29080 02 36 18.06 +12 19 50.6 19.4   704 – Lincoln Laboratory ETS, New Mexico MPS 257838
2008 10 01.30302 02 36 17.73 +12 19 48.4 19.9   704 – Lincoln Laboratory ETS, New Mexico MPS 257838
2008 10 01.31524 02 36 17.47 +12 19 46.2 19.7   704 – Lincoln Laboratory ETS, New Mexico MPS 257838
2008 10 01.32757 02 36 17.08 +12 19 44.5 20.0   704 – Lincoln Laboratory ETS, New Mexico MPS 257838
2008 10 01.33990 02 36 16.80 +12 19 40.7 19.9   704 – Lincoln Laboratory ETS, New Mexico MPS 257838
2008 10 02.35764 02 35 53.06 +12 16 22.4 19.2 V 691 – Steward Observatory, Kitt Peak-Spacewatch MPS 257838
2008 10 02.37820 02 35 52.48 +12 16 18.3 19.2 V 691 – Steward Observatory, Kitt Peak-Spacewatch MPS 257838
2008 10 02.39927 02 35 51.89 +12 16 13.9 19.3 V 691 – Steward Observatory, Kitt Peak-Spacewatch MPS 257838
2008 10 07.39915 02 33 22.89 +11 57 47.9 20.0 V 691 – Steward Observatory, Kitt Peak-Spacewatch MPS 259175
2008 10 07.41680 02 33 22.21 +11 57 43.4 19.4 V 691 – Steward Observatory, Kitt Peak-Spacewatch MPS 259175
2008 10 07.43443 02 33 21.53 +11 57 39.1 19.1 V 691 – Steward Observatory, Kitt Peak-Spacewatch MPS 259175
2008 10 26.26610 02 18 06.40 +10 27 46.2 18.6   704 – Lincoln Laboratory ETS, New Mexico MPS 261399
2008 10 26.27761 02 18 05.72 +10 27 43.2 18.5   704 – Lincoln Laboratory ETS, New Mexico MPS 261399
2008 10 26.28910 02 18 05.02 +10 27 39.9 18.5   704 – Lincoln Laboratory ETS, New Mexico MPS 261399
2008 10 26.30070 02 18 04.32 +10 27 36.3 18.6   704 – Lincoln Laboratory ETS, New Mexico MPS 261399
2008 10 27.17369 02 17 15.20 +10 23 13.0 18.5 V 691 – Steward Observatory, Kitt Peak-Spacewatch MPS 261399
2008 10 27.19136 02 17 14.14 +10 23 08.0 18.4 V 691 – Steward Observatory, Kitt Peak-Spacewatch MPS 261399
2008 10 27.20902 02 17 13.09 +10 23 02.8 18.4 V 691 – Steward Observatory, Kitt Peak-Spacewatch MPS 261399
2008 10 28.24539 02 16 13.96 +10 17 54.1 18.0   704 – Lincoln Laboratory ETS, New Mexico MPS 261399
2008 10 28.25690 02 16 13.25 +10 17 50.8 18.2   704 – Lincoln Laboratory ETS, New Mexico MPS 261399
2008 10 28.26841 02 16 12.55 +10 17 46.5 18.3   704 – Lincoln Laboratory ETS, New Mexico MPS 261399
2008 10 28.28006 02 16 11.87 +10 17 44.1 18.3   704 – Lincoln Laboratory ETS, New Mexico MPS 261399
2008 10 28.29162 02 16 11.17 +10 17 40.7 18.2   704 – Lincoln Laboratory ETS, New Mexico MPS 261399
2008 10 30.23419 02 14 21.37 +10 08 10.7 18.1 V 703 – Catalina Sky Survey MPS 261399
2008 10 30.24075 02 14 20.94 +10 08 09.5 18.2 V 703 – Catalina Sky Survey MPS 261399
2008 10 30.24742 02 14 20.58 +10 08 08.1 18.2 V 703 – Catalina Sky Survey MPS 261399
2008 10 30.25405 02 14 20.14 +10 08 05.6 18.0 V 703 – Catalina Sky Survey MPS 261399
2008 10 31.24684 02 13 24.22 +10 03 22.1 17.9   704 – Lincoln Laboratory ETS, New Mexico MPS 263110
2008 10 31.25845 02 13 23.55 +10 03 19.0 18.2   704 – Lincoln Laboratory ETS, New Mexico MPS 263110
2008 10 31.27019 02 13 22.85 +10 03 15.5 18.2   704 – Lincoln Laboratory ETS, New Mexico MPS 263110
